Year,Month,Day,Hour,Minute,Value (Times are PST for temperature in C)
2016,08,21,00,00,18.90
2016,08,21,00,01,18.90
2016,08,21,00,02,18.90
2016,08,21,00,03,18.90
2016,08,21,00,04,18.90
2016,08,21,00,05,18.90
2016,08,21,00,06,18.80
2016,08,21,00,07,18.80
2016,08,21,00,08,18.80
2016,08,21,00,09,18.80
2016,08,21,00,10,18.80
2016,08,21,00,11,18.80
2016,08,21,00,12,18.80
2016,08,21,00,13,18.80
2016,08,21,00,14,18.80
2016,08,21,00,15,18.80
2016,08,21,00,16,18.80
2016,08,21,00,17,18.80
2016,08,21,00,18,18.80
2016,08,21,00,19,18.80
2016,08,21,00,20,18.80
2016,08,21,00,21,18.80
2016,08,21,00,22,18.80
2016,08,21,00,23,18.80
2016,08,21,00,24,18.80
2016,08,21,00,25,18.80
2016,08,21,00,26,18.80
2016,08,21,00,27,18.80
2016,08,21,00,28,18.90
2016,08,21,00,29,18.90
2016,08,21,00,30,18.90
2016,08,21,00,31,18.90
2016,08,21,00,32,18.90
2016,08,21,00,33,18.90
2016,08,21,00,34,18.90
2016,08,21,00,35,18.90
2016,08,21,00,36,18.90
2016,08,21,00,37,18.90
2016,08,21,00,38,18.90
2016,08,21,00,39,18.90
2016,08,21,00,40,18.90
2016,08,21,00,41,18.90
2016,08,21,00,42,19.00
2016,08,21,00,43,19.10
2016,08,21,00,44,19.10
2016,08,21,00,45,19.20
2016,08,21,00,46,19.30
2016,08,21,00,47,19.40
2016,08,21,00,48,19.50
2016,08,21,00,49,19.50
2016,08,21,00,50,19.60
2016,08,21,00,51,19.70
2016,08,21,00,52,19.80
2016,08,21,00,53,19.80
2016,08,21,00,54,19.90
2016,08,21,00,55,20.00
2016,08,21,00,56,20.10
2016,08,21,00,57,20.20
2016,08,21,00,58,20.20
2016,08,21,00,59,20.30
2016,08,21,01,00,20.30
2016,08,21,01,01,20.40
2016,08,21,01,02,20.40
2016,08,21,01,03,20.50
2016,08,21,01,04,20.50
2016,08,21,01,05,20.60
2016,08,21,01,06,20.60
2016,08,21,01,07,20.60
2016,08,21,01,08,20.70
2016,08,21,01,09,20.70
2016,08,21,01,10,20.70
2016,08,21,01,11,20.80
2016,08,21,01,12,20.80
2016,08,21,01,13,20.80
2016,08,21,01,14,20.80
2016,08,21,01,15,20.80
2016,08,21,01,16,20.90
2016,08,21,01,17,20.90
2016,08,21,01,18,20.90
2016,08,21,01,19,21.00
2016,08,21,01,20,21.00
2016,08,21,01,21,21.10
2016,08,21,01,22,21.10
2016,08,21,01,23,21.10
2016,08,21,01,24,21.20
2016,08,21,01,25,21.20
2016,08,21,01,26,21.20
2016,08,21,01,27,21.10
2016,08,21,01,28,21.10
2016,08,21,01,29,21.00
2016,08,21,01,30,20.90
2016,08,21,01,31,20.80
2016,08,21,01,32,20.70
2016,08,21,01,33,20.60
2016,08,21,01,34,20.40
2016,08,21,01,35,20.30
2016,08,21,01,36,20.10
2016,08,21,01,37,19.90
2016,08,21,01,38,19.80
2016,08,21,01,39,19.60
2016,08,21,01,40,19.40
2016,08,21,01,41,19.30
2016,08,21,01,42,19.20
2016,08,21,01,43,19.00
2016,08,21,01,44,18.90
2016,08,21,01,45,18.80
2016,08,21,01,46,18.70
2016,08,21,01,47,18.60
2016,08,21,01,48,18.50
2016,08,21,01,49,18.40
2016,08,21,01,50,18.30
2016,08,21,01,51,18.30
2016,08,21,01,52,18.20
2016,08,21,01,53,18.20
2016,08,21,01,54,18.20
2016,08,21,01,55,18.10
2016,08,21,01,56,18.10
2016,08,21,01,57,18.10
2016,08,21,01,58,18.10
2016,08,21,01,59,18.10
2016,08,21,02,00,18.10
2016,08,21,02,01,18.10
2016,08,21,02,02,18.10
2016,08,21,02,03,18.10
2016,08,21,02,04,18.10
2016,08,21,02,05,18.20
2016,08,21,02,06,18.20
2016,08,21,02,07,18.30
2016,08,21,02,08,18.30
2016,08,21,02,09,18.30
2016,08,21,02,10,18.40
2016,08,21,02,11,18.40
2016,08,21,02,12,18.40
2016,08,21,02,13,18.40
2016,08,21,02,14,18.40
2016,08,21,02,15,18.40
2016,08,21,02,16,18.40
2016,08,21,02,17,18.40
2016,08,21,02,18,18.40
2016,08,21,02,19,18.40
2016,08,21,02,20,18.40
2016,08,21,02,21,18.40
2016,08,21,02,22,18.40
2016,08,21,02,23,18.30
2016,08,21,02,24,18.30
2016,08,21,02,25,18.30
2016,08,21,02,26,18.30
2016,08,21,02,27,18.20
2016,08,21,02,28,18.20
2016,08,21,02,29,18.20
2016,08,21,02,30,18.20
2016,08,21,02,31,18.10
2016,08,21,02,32,18.10
2016,08,21,02,33,18.10
2016,08,21,02,34,18.10
2016,08,21,02,35,18.10
2016,08,21,02,36,18.10
2016,08,21,02,37,18.10
2016,08,21,02,38,18.00
2016,08,21,02,39,18.00
2016,08,21,02,40,18.00
2016,08,21,02,41,17.90
2016,08,21,02,42,17.90
2016,08,21,02,43,17.90
2016,08,21,02,44,17.90
2016,08,21,02,45,17.90
2016,08,21,02,46,17.90
2016,08,21,02,47,17.80
2016,08,21,02,48,17.80
2016,08,21,02,49,17.80
2016,08,21,02,50,17.80
2016,08,21,02,51,17.80
2016,08,21,02,52,17.80
2016,08,21,02,53,17.80
2016,08,21,02,54,17.80
2016,08,21,02,55,17.80
2016,08,21,02,56,17.70
2016,08,21,02,57,17.70
2016,08,21,02,58,17.70
2016,08,21,02,59,17.70
2016,08,21,03,00,17.70
2016,08,21,03,01,17.70
2016,08,21,03,02,17.60
2016,08,21,03,03,17.60
2016,08,21,03,04,17.60
2016,08,21,03,05,17.60
2016,08,21,03,06,17.60
2016,08,21,03,07,17.50
2016,08,21,03,08,17.50
2016,08,21,03,09,17.50
2016,08,21,03,10,17.40
2016,08,21,03,11,17.40
2016,08,21,03,12,17.40
2016,08,21,03,13,17.30
2016,08,21,03,14,17.30
2016,08,21,03,15,17.30
2016,08,21,03,16,17.30
2016,08,21,03,17,17.30
2016,08,21,03,18,17.30
2016,08,21,03,19,17.20
2016,08,21,03,20,17.20
2016,08,21,03,21,17.20
2016,08,21,03,22,17.20
2016,08,21,03,23,17.20
2016,08,21,03,24,17.20
2016,08,21,03,25,17.10
2016,08,21,03,26,17.10
2016,08,21,03,27,17.10
2016,08,21,03,28,17.10
2016,08,21,03,29,17.10
2016,08,21,03,30,17.10
2016,08,21,03,31,17.10
2016,08,21,03,32,17.10
2016,08,21,03,33,17.10
2016,08,21,03,34,17.10
2016,08,21,03,35,17.00
2016,08,21,03,36,17.00
2016,08,21,03,37,17.00
2016,08,21,03,38,16.90
2016,08,21,03,39,16.90
2016,08,21,03,40,16.90
2016,08,21,03,41,16.90
2016,08,21,03,42,16.90
2016,08,21,03,43,16.90
2016,08,21,03,44,16.90
2016,08,21,03,45,16.90
2016,08,21,03,46,16.80
2016,08,21,03,47,16.80
2016,08,21,03,48,16.80
2016,08,21,03,49,16.80
2016,08,21,03,50,16.80
2016,08,21,03,51,16.80
2016,08,21,03,52,16.80
2016,08,21,03,53,16.80
2016,08,21,03,54,16.80
2016,08,21,03,55,16.80
2016,08,21,03,56,16.80
2016,08,21,03,57,16.80
2016,08,21,03,58,16.70
2016,08,21,03,59,16.70
2016,08,21,04,00,16.70
2016,08,21,04,01,16.70
2016,08,21,04,02,16.70
2016,08,21,04,03,16.60
2016,08,21,04,04,16.60
2016,08,21,04,05,16.60
2016,08,21,04,06,16.60
2016,08,21,04,07,16.50
2016,08,21,04,08,16.50
2016,08,21,04,09,16.50
2016,08,21,04,10,16.40
2016,08,21,04,11,16.40
2016,08,21,04,12,16.40
2016,08,21,04,13,16.40
2016,08,21,04,14,16.40
2016,08,21,04,15,16.30
2016,08,21,04,16,16.30
2016,08,21,04,17,16.30
2016,08,21,04,18,16.30
2016,08,21,04,19,16.30
2016,08,21,04,20,16.30
2016,08,21,04,21,16.30
2016,08,21,04,22,16.30
2016,08,21,04,23,16.30
2016,08,21,04,24,16.30
2016,08,21,04,25,16.30
2016,08,21,04,26,16.30
2016,08,21,04,27,16.30
2016,08,21,04,28,16.30
2016,08,21,04,29,16.30
2016,08,21,04,30,16.30
2016,08,21,04,31,16.30
2016,08,21,04,32,16.30
2016,08,21,04,33,16.30
2016,08,21,04,34,16.30
2016,08,21,04,35,16.40
2016,08,21,04,36,16.40
2016,08,21,04,37,16.40
2016,08,21,04,38,16.40
2016,08,21,04,39,16.40
2016,08,21,04,40,16.40
2016,08,21,04,41,16.40
2016,08,21,04,42,16.40
2016,08,21,04,43,16.40
2016,08,21,04,44,16.40
2016,08,21,04,45,16.40
2016,08,21,04,46,16.40
2016,08,21,04,47,16.50
2016,08,21,04,48,16.60
2016,08,21,04,49,16.60
2016,08,21,04,50,16.80
2016,08,21,04,51,16.90
2016,08,21,04,52,17.10
2016,08,21,04,53,17.20
2016,08,21,04,54,17.30
2016,08,21,04,55,17.50
2016,08,21,04,56,17.70
2016,08,21,04,57,17.90
2016,08,21,04,58,18.10
2016,08,21,04,59,18.20
2016,08,21,05,00,18.30
2016,08,21,05,01,18.30
2016,08,21,05,02,18.30
2016,08,21,05,03,18.30
2016,08,21,05,04,18.30
2016,08,21,05,05,18.50
2016,08,21,05,06,18.70
2016,08,21,05,07,18.80
2016,08,21,05,08,19.00
2016,08,21,05,09,19.10
2016,08,21,05,10,19.30
2016,08,21,05,11,19.40
2016,08,21,05,12,19.50
2016,08,21,05,13,19.60
2016,08,21,05,14,19.60
2016,08,21,05,15,19.70
2016,08,21,05,16,19.80
2016,08,21,05,17,19.80
2016,08,21,05,18,19.80
2016,08,21,05,19,19.90
2016,08,21,05,20,19.90
2016,08,21,05,21,19.90
2016,08,21,05,22,19.90
2016,08,21,05,23,19.90
2016,08,21,05,24,19.90
2016,08,21,05,25,19.80
2016,08,21,05,26,19.80
2016,08,21,05,27,19.80
2016,08,21,05,28,19.70
2016,08,21,05,29,19.70
2016,08,21,05,30,19.60
2016,08,21,05,31,19.60
2016,08,21,05,32,19.50
2016,08,21,05,33,19.40
2016,08,21,05,34,19.30
2016,08,21,05,35,19.20
2016,08,21,05,36,19.10
2016,08,21,05,37,19.00
2016,08,21,05,38,18.80
2016,08,21,05,39,18.70
2016,08,21,05,40,18.60
2016,08,21,05,41,18.50
2016,08,21,05,42,18.40
2016,08,21,05,43,18.30
2016,08,21,05,44,18.20
2016,08,21,05,45,18.10
2016,08,21,05,46,18.00
2016,08,21,05,47,17.90
2016,08,21,05,48,17.80
2016,08,21,05,49,17.70
2016,08,21,05,50,17.60
2016,08,21,05,51,17.40
2016,08,21,05,52,17.30
2016,08,21,05,53,17.20
2016,08,21,05,54,17.10
2016,08,21,05,55,17.00
2016,08,21,05,56,17.00
2016,08,21,05,57,16.90
2016,08,21,05,58,16.80
2016,08,21,05,59,16.80
2016,08,21,06,00,16.70
2016,08,21,06,01,16.60
2016,08,21,06,02,16.60
2016,08,21,06,03,16.50
2016,08,21,06,04,16.40
2016,08,21,06,05,16.40
2016,08,21,06,06,16.30
2016,08,21,06,07,16.30
2016,08,21,06,08,16.20
2016,08,21,06,09,16.20
2016,08,21,06,10,16.10
2016,08,21,06,11,16.10
2016,08,21,06,12,16.10
2016,08,21,06,13,16.00
2016,08,21,06,14,16.00
2016,08,21,06,15,15.90
2016,08,21,06,16,15.90
2016,08,21,06,17,15.80
2016,08,21,06,18,15.80
2016,08,21,06,19,15.80
2016,08,21,06,20,15.80
2016,08,21,06,21,15.70
2016,08,21,06,22,15.70
2016,08,21,06,23,15.70
2016,08,21,06,24,15.70
2016,08,21,06,25,15.60
2016,08,21,06,26,15.60
2016,08,21,06,27,15.60
2016,08,21,06,28,15.50
2016,08,21,06,29,15.50
2016,08,21,06,30,15.40
2016,08,21,06,31,15.40
2016,08,21,06,32,15.30
2016,08,21,06,33,15.30
2016,08,21,06,34,15.30
2016,08,21,06,35,15.20
2016,08,21,06,36,15.20
2016,08,21,06,37,15.20
2016,08,21,06,38,15.10
2016,08,21,06,39,15.10
2016,08,21,06,40,15.00
2016,08,21,06,41,15.00
2016,08,21,06,42,15.00
2016,08,21,06,43,15.00
2016,08,21,06,44,15.00
2016,08,21,06,45,14.90
2016,08,21,06,46,14.90
2016,08,21,06,47,14.90
2016,08,21,06,48,14.80
2016,08,21,06,49,14.80
2016,08,21,06,50,14.80
2016,08,21,06,51,14.80
2016,08,21,06,52,14.80
2016,08,21,06,53,14.80
2016,08,21,06,54,14.70
2016,08,21,06,55,14.70
2016,08,21,06,56,14.70
2016,08,21,06,57,14.70
2016,08,21,06,58,14.70
2016,08,21,06,59,14.70
2016,08,21,07,00,14.70
2016,08,21,07,01,14.70
2016,08,21,07,02,14.70
2016,08,21,07,03,14.70
2016,08,21,07,04,14.70
2016,08,21,07,05,14.70
2016,08,21,07,06,14.70
2016,08,21,07,07,14.70
2016,08,21,07,08,14.70
2016,08,21,07,09,14.70
2016,08,21,07,10,14.70
2016,08,21,07,11,14.80
2016,08,21,07,12,14.80
2016,08,21,07,13,14.80
2016,08,21,07,14,14.80
2016,08,21,07,15,14.80
2016,08,21,07,16,14.80
2016,08,21,07,17,14.80
2016,08,21,07,18,14.80
2016,08,21,07,19,14.80
2016,08,21,07,20,14.80
2016,08,21,07,21,14.80
2016,08,21,07,22,14.80
2016,08,21,07,23,14.80
2016,08,21,07,24,14.80
2016,08,21,07,25,14.80
2016,08,21,07,26,14.80
2016,08,21,07,27,14.80
2016,08,21,07,28,14.80
2016,08,21,07,29,14.80
2016,08,21,07,30,14.80
2016,08,21,07,31,14.90
2016,08,21,07,32,14.90
2016,08,21,07,33,14.90
2016,08,21,07,34,14.90
2016,08,21,07,35,14.90
2016,08,21,07,36,14.90
2016,08,21,07,37,14.90
2016,08,21,07,38,15.00
2016,08,21,07,39,15.00
2016,08,21,07,40,15.00
2016,08,21,07,41,15.00
2016,08,21,07,42,15.00
2016,08,21,07,43,15.00
2016,08,21,07,44,15.00
2016,08,21,07,45,15.00
2016,08,21,07,46,15.00
2016,08,21,07,47,15.00
2016,08,21,07,48,15.00
2016,08,21,07,49,15.00
2016,08,21,07,50,15.00
2016,08,21,07,51,15.00
2016,08,21,07,52,15.00
2016,08,21,07,53,15.00
2016,08,21,07,54,15.00
2016,08,21,07,55,15.00
2016,08,21,07,56,15.00
2016,08,21,07,57,15.00
2016,08,21,07,58,15.00
2016,08,21,07,59,15.00
2016,08,21,08,00,15.00
2016,08,21,08,01,15.00
2016,08,21,08,02,15.00
2016,08,21,08,03,15.00
2016,08,21,08,04,15.00
2016,08,21,08,05,15.00
2016,08,21,08,06,15.00
2016,08,21,08,07,15.10
2016,08,21,08,08,15.10
2016,08,21,08,09,15.20
2016,08,21,08,10,15.20
2016,08,21,08,11,15.20
2016,08,21,08,12,15.30
2016,08,21,08,13,15.30
2016,08,21,08,14,15.30
2016,08,21,08,15,15.40
2016,08,21,08,16,15.40
2016,08,21,08,17,15.50
2016,08,21,08,18,15.50
2016,08,21,08,19,15.60
2016,08,21,08,20,15.60
2016,08,21,08,21,15.70
2016,08,21,08,22,15.70
2016,08,21,08,23,15.70
2016,08,21,08,24,15.80
2016,08,21,08,25,15.80
2016,08,21,08,26,15.80
2016,08,21,08,27,15.80
2016,08,21,08,28,15.90
2016,08,21,08,29,15.90
2016,08,21,08,30,16.00
2016,08,21,08,31,16.10
2016,08,21,08,32,16.10
2016,08,21,08,33,16.10
2016,08,21,08,34,16.20
2016,08,21,08,35,16.20
2016,08,21,08,36,16.20
2016,08,21,08,37,16.30
2016,08,21,08,38,16.30
2016,08,21,08,39,16.30
2016,08,21,08,40,16.40
2016,08,21,08,41,16.40
2016,08,21,08,42,16.40
2016,08,21,08,43,16.50
2016,08,21,08,44,16.50
2016,08,21,08,45,16.60
2016,08,21,08,46,16.60
2016,08,21,08,47,16.70
2016,08,21,08,48,16.70
2016,08,21,08,49,16.70
2016,08,21,08,50,16.70
2016,08,21,08,51,16.70
2016,08,21,08,52,16.70
2016,08,21,08,53,16.70
2016,08,21,08,54,16.80
2016,08,21,08,55,16.80
2016,08,21,08,56,16.80
2016,08,21,08,57,16.80
2016,08,21,08,58,16.80
2016,08,21,08,59,16.90
2016,08,21,09,00,16.80
2016,08,21,09,01,16.80
2016,08,21,09,02,16.80
2016,08,21,09,03,16.80
2016,08,21,09,04,16.80
2016,08,21,09,05,16.80
2016,08,21,09,06,16.80
2016,08,21,09,07,16.80
2016,08,21,09,08,16.80
2016,08,21,09,09,16.90
2016,08,21,09,10,16.90
2016,08,21,09,11,16.90
2016,08,21,09,12,16.90
2016,08,21,09,13,16.80
2016,08,21,09,14,16.80
2016,08,21,09,15,16.80
2016,08,21,09,16,16.90
2016,08,21,09,17,16.90
2016,08,21,09,18,17.00
2016,08,21,09,19,17.10
2016,08,21,09,20,17.10
2016,08,21,09,21,17.10
2016,08,21,09,22,17.10
2016,08,21,09,23,17.10
2016,08,21,09,24,17.10
2016,08,21,09,25,17.20
2016,08,21,09,26,17.30
2016,08,21,09,27,17.30
2016,08,21,09,28,17.40
2016,08,21,09,29,17.50
2016,08,21,09,30,17.50
2016,08,21,09,31,17.60
2016,08,21,09,32,17.60
2016,08,21,09,33,17.70
2016,08,21,09,34,17.70
2016,08,21,09,35,17.70
2016,08,21,09,36,17.70
2016,08,21,09,37,17.60
2016,08,21,09,38,17.60
2016,08,21,09,39,17.60
2016,08,21,09,40,17.60
2016,08,21,09,41,17.60
2016,08,21,09,42,17.60
2016,08,21,09,43,17.60
2016,08,21,09,44,17.60
2016,08,21,09,45,17.60
2016,08,21,09,46,17.70
2016,08,21,09,47,17.70
2016,08,21,09,48,17.70
2016,08,21,09,49,17.70
2016,08,21,09,50,17.70
2016,08,21,09,51,17.70
2016,08,21,09,52,17.70
2016,08,21,09,53,17.70
2016,08,21,09,54,17.70
2016,08,21,09,55,17.80
2016,08,21,09,56,17.80
2016,08,21,09,57,17.80
2016,08,21,09,58,17.80
2016,08,21,09,59,17.80
2016,08,21,10,00,17.80
2016,08,21,10,01,17.80
2016,08,21,10,02,17.90
2016,08,21,10,03,17.90
2016,08,21,10,04,17.90
2016,08,21,10,05,17.80
2016,08,21,10,06,17.80
2016,08,21,10,07,17.70
2016,08,21,10,08,17.70
2016,08,21,10,09,17.70
2016,08,21,10,10,17.70
2016,08,21,10,11,17.70
2016,08,21,10,12,17.70
2016,08,21,10,13,17.70
2016,08,21,10,14,17.80
2016,08,21,10,15,17.80
2016,08,21,10,16,17.70
2016,08,21,10,17,17.70
2016,08,21,10,18,17.70
2016,08,21,10,19,17.70
2016,08,21,10,20,17.60
2016,08,21,10,21,17.60
2016,08,21,10,22,17.60
2016,08,21,10,23,17.60
2016,08,21,10,24,17.60
2016,08,21,10,25,17.70
2016,08,21,10,26,17.80
2016,08,21,10,27,17.90
2016,08,21,10,28,17.90
2016,08,21,10,29,17.90
2016,08,21,10,30,17.90
2016,08,21,10,31,17.90
2016,08,21,10,32,17.90
2016,08,21,10,33,17.90
2016,08,21,10,34,17.90
2016,08,21,10,35,17.90
2016,08,21,10,36,17.90
2016,08,21,10,37,17.90
2016,08,21,10,38,17.90
2016,08,21,10,39,18.00
2016,08,21,10,40,17.90
2016,08,21,10,41,17.90
2016,08,21,10,42,17.90
2016,08,21,10,43,17.90
2016,08,21,10,44,17.90
2016,08,21,10,45,17.90
2016,08,21,10,46,17.90
2016,08,21,10,47,18.00
2016,08,21,10,48,18.10
2016,08,21,10,49,18.10
2016,08,21,10,50,18.20
2016,08,21,10,51,18.20
2016,08,21,10,52,18.20
2016,08,21,10,53,18.10
2016,08,21,10,54,18.10
2016,08,21,10,55,18.10
2016,08,21,10,56,18.20
2016,08,21,10,57,18.20
2016,08,21,10,58,18.20
2016,08,21,10,59,18.20
2016,08,21,11,00,18.20
2016,08,21,11,01,18.20
2016,08,21,11,02,18.20
2016,08,21,11,03,18.10
2016,08,21,11,04,18.10
2016,08,21,11,05,18.10
2016,08,21,11,06,18.10
2016,08,21,11,07,18.10
2016,08,21,11,08,18.10
2016,08,21,11,09,18.10
2016,08,21,11,10,18.00
2016,08,21,11,11,18.00
2016,08,21,11,12,17.90
2016,08,21,11,13,17.90
2016,08,21,11,14,17.90
2016,08,21,11,15,17.90
2016,08,21,11,16,18.00
2016,08,21,11,17,18.00
2016,08,21,11,18,18.00
2016,08,21,11,19,18.00
2016,08,21,11,20,18.00
2016,08,21,11,21,18.00
2016,08,21,11,22,18.00
2016,08,21,11,23,17.90
2016,08,21,11,24,17.90
2016,08,21,11,25,17.90
2016,08,21,11,26,17.90
2016,08,21,11,27,17.90
2016,08,21,11,28,17.90
2016,08,21,11,29,18.00
2016,08,21,11,30,18.00
2016,08,21,11,31,18.00
2016,08,21,11,32,18.00
2016,08,21,11,33,18.00
2016,08,21,11,34,18.10
2016,08,21,11,35,18.10
2016,08,21,11,36,18.20
2016,08,21,11,37,18.20
2016,08,21,11,38,18.20
2016,08,21,11,39,18.30
2016,08,21,11,40,18.30
2016,08,21,11,41,18.30
2016,08,21,11,42,18.40
2016,08,21,11,43,18.40
2016,08,21,11,44,18.40
2016,08,21,11,45,18.40
2016,08,21,11,46,18.50
2016,08,21,11,47,18.60
2016,08,21,11,48,18.60
2016,08,21,11,49,18.50
2016,08,21,11,50,18.50
2016,08,21,11,51,18.50
2016,08,21,11,52,18.40
2016,08,21,11,53,18.40
2016,08,21,11,54,18.40
2016,08,21,11,55,18.40
2016,08,21,11,56,18.40
2016,08,21,11,57,18.40
2016,08,21,11,58,18.50
2016,08,21,11,59,18.50
2016,08,21,12,00,18.50
2016,08,21,12,01,18.50
2016,08,21,12,02,18.50
2016,08,21,12,03,18.50
2016,08,21,12,04,18.50
2016,08,21,12,05,18.60
2016,08,21,12,06,18.60
2016,08,21,12,07,18.80
2016,08,21,12,08,19.00
2016,08,21,12,09,19.10
2016,08,21,12,10,19.10
2016,08,21,12,11,19.10
2016,08,21,12,12,19.10
2016,08,21,12,13,19.10
2016,08,21,12,14,19.00
2016,08,21,12,15,18.90
2016,08,21,12,16,18.90
2016,08,21,12,17,18.90
2016,08,21,12,18,18.80
2016,08,21,12,19,18.90
2016,08,21,12,20,18.80
2016,08,21,12,21,18.80
2016,08,21,12,22,18.70
2016,08,21,12,23,18.50
2016,08,21,12,24,18.40
2016,08,21,12,25,18.30
2016,08,21,12,26,18.20
2016,08,21,12,27,18.10
2016,08,21,12,28,18.00
2016,08,21,12,29,18.00
2016,08,21,12,30,17.90
2016,08,21,12,31,17.90
2016,08,21,12,32,17.80
2016,08,21,12,33,17.70
2016,08,21,12,34,17.70
2016,08,21,12,35,17.70
2016,08,21,12,36,17.70
2016,08,21,12,37,17.70
2016,08,21,12,38,17.70
2016,08,21,12,39,17.70
2016,08,21,12,40,17.70
2016,08,21,12,41,17.70
2016,08,21,12,42,17.80
2016,08,21,12,43,17.80
2016,08,21,12,44,17.80
2016,08,21,12,45,17.90
2016,08,21,12,46,17.90
2016,08,21,12,47,17.90
2016,08,21,12,48,18.00
2016,08,21,12,49,18.00
2016,08,21,12,50,18.00
2016,08,21,12,51,18.00
2016,08,21,12,52,17.90
2016,08,21,12,53,17.90
2016,08,21,12,54,17.90
2016,08,21,12,55,17.90
2016,08,21,12,56,18.00
2016,08,21,12,57,18.10
2016,08,21,12,58,18.20
2016,08,21,12,59,18.20
2016,08,21,13,00,18.20
2016,08,21,13,01,18.20
2016,08,21,13,02,18.30
2016,08,21,13,03,18.30
2016,08,21,13,04,18.30
2016,08,21,13,05,18.30
2016,08,21,13,06,18.30
2016,08,21,13,07,18.30
2016,08,21,13,08,18.30
2016,08,21,13,09,18.30
2016,08,21,13,10,18.40
2016,08,21,13,11,18.40
2016,08,21,13,12,18.40
2016,08,21,13,13,18.50
2016,08,21,13,14,18.50
2016,08,21,13,15,18.50
2016,08,21,13,16,18.60
2016,08,21,13,17,18.60
2016,08,21,13,18,18.70
2016,08,21,13,19,18.60
2016,08,21,13,20,18.60
2016,08,21,13,21,18.60
2016,08,21,13,22,18.60
2016,08,21,13,23,18.50
2016,08,21,13,24,18.40
2016,08,21,13,25,18.40
2016,08,21,13,26,18.30
2016,08,21,13,27,18.30
2016,08,21,13,28,18.20
2016,08,21,13,29,18.20
2016,08,21,13,30,18.30
2016,08,21,13,31,18.20
2016,08,21,13,32,18.30
2016,08,21,13,33,18.30
2016,08,21,13,34,18.30
2016,08,21,13,35,18.30
2016,08,21,13,36,18.30
2016,08,21,13,37,18.20
2016,08,21,13,38,18.20
2016,08,21,13,39,18.20
2016,08,21,13,40,18.20
2016,08,21,13,41,18.30
2016,08,21,13,42,18.30
2016,08,21,13,43,18.20
2016,08,21,13,44,18.10
2016,08,21,13,45,18.10
2016,08,21,13,46,18.00
2016,08,21,13,47,18.00
2016,08,21,13,48,17.90
2016,08,21,13,49,17.90
2016,08,21,13,50,17.90
2016,08,21,13,51,17.80
2016,08,21,13,52,17.80
2016,08,21,13,53,17.80
2016,08,21,13,54,17.70
2016,08,21,13,55,17.70
2016,08,21,13,56,17.70
2016,08,21,13,57,17.80
2016,08,21,13,58,17.80
2016,08,21,13,59,17.80
2016,08,21,14,00,17.80
2016,08,21,14,01,17.80
2016,08,21,14,02,17.80
2016,08,21,14,03,17.80
2016,08,21,14,04,17.80
2016,08,21,14,05,17.90
2016,08,21,14,06,17.90
2016,08,21,14,07,18.00
2016,08,21,14,08,18.00
2016,08,21,14,09,18.00
2016,08,21,14,10,18.10
2016,08,21,14,11,18.00
2016,08,21,14,12,18.00
2016,08,21,14,13,18.00
2016,08,21,14,14,18.00
2016,08,21,14,15,17.90
2016,08,21,14,16,17.90
2016,08,21,14,17,18.00
2016,08,21,14,18,18.00
2016,08,21,14,19,18.10
2016,08,21,14,20,18.10
2016,08,21,14,21,18.10
2016,08,21,14,22,18.20
2016,08,21,14,23,18.10
2016,08,21,14,24,18.10
2016,08,21,14,25,18.10
2016,08,21,14,26,18.00
2016,08,21,14,27,18.00
2016,08,21,14,28,17.90
2016,08,21,14,29,17.90
2016,08,21,14,30,17.90
2016,08,21,14,31,18.00
2016,08,21,14,32,18.00
2016,08,21,14,33,18.10
2016,08,21,14,34,18.10
2016,08,21,14,35,18.20
2016,08,21,14,36,18.20
2016,08,21,14,37,18.30
2016,08,21,14,38,18.30
2016,08,21,14,39,18.40
2016,08,21,14,40,18.40
2016,08,21,14,41,18.40
2016,08,21,14,42,18.40
2016,08,21,14,43,18.40
2016,08,21,14,44,18.40
2016,08,21,14,45,18.40
2016,08,21,14,46,18.40
2016,08,21,14,47,18.40
2016,08,21,14,48,18.40
2016,08,21,14,49,18.50
2016,08,21,14,50,18.50
2016,08,21,14,51,18.60
2016,08,21,14,52,18.60
2016,08,21,14,53,18.60
2016,08,21,14,54,18.60
2016,08,21,14,55,18.50
2016,08,21,14,56,18.40
2016,08,21,14,57,18.40
2016,08,21,14,58,18.40
2016,08,21,14,59,18.40
2016,08,21,15,00,18.50
2016,08,21,15,01,18.50
2016,08,21,15,02,18.60
2016,08,21,15,03,18.70
2016,08,21,15,04,18.70
2016,08,21,15,05,18.70
2016,08,21,15,06,18.80
2016,08,21,15,07,19.00
2016,08,21,15,08,19.10
2016,08,21,15,09,19.10
2016,08,21,15,10,19.00
2016,08,21,15,11,18.80
2016,08,21,15,12,18.80
2016,08,21,15,13,18.80
2016,08,21,15,14,18.70
2016,08,21,15,15,18.70
2016,08,21,15,16,18.70
2016,08,21,15,17,18.70
2016,08,21,15,18,18.70
2016,08,21,15,19,18.70
2016,08,21,15,20,18.70
2016,08,21,15,21,18.70
2016,08,21,15,22,18.70
2016,08,21,15,23,18.70
2016,08,21,15,24,18.70
2016,08,21,15,25,18.60
2016,08,21,15,26,18.60
2016,08,21,15,27,18.70
2016,08,21,15,28,18.80
2016,08,21,15,29,18.80
2016,08,21,15,30,18.90
2016,08,21,15,31,18.90
2016,08,21,15,32,18.90
2016,08,21,15,33,18.80
2016,08,21,15,34,18.90
2016,08,21,15,35,18.90
2016,08,21,15,36,18.90
2016,08,21,15,37,18.90
2016,08,21,15,38,18.90
2016,08,21,15,39,18.90
2016,08,21,15,40,18.80
2016,08,21,15,41,18.80
2016,08,21,15,42,18.70
2016,08,21,15,43,18.70
2016,08,21,15,44,18.60
2016,08,21,15,45,18.60
2016,08,21,15,46,18.60
2016,08,21,15,47,18.60
2016,08,21,15,48,18.60
2016,08,21,15,49,18.50
2016,08,21,15,50,18.50
2016,08,21,15,51,18.50
2016,08,21,15,52,18.50
2016,08,21,15,53,18.40
2016,08,21,15,54,18.40
2016,08,21,15,55,18.40
2016,08,21,15,56,18.40
2016,08,21,15,57,18.40
2016,08,21,15,58,18.40
2016,08,21,15,59,18.40
2016,08,21,16,00,18.50
2016,08,21,16,01,18.50
2016,08,21,16,02,18.50
2016,08,21,16,03,18.60
2016,08,21,16,04,18.50
2016,08,21,16,05,18.40
2016,08,21,16,06,18.40
2016,08,21,16,07,18.40
2016,08,21,16,08,18.50
2016,08,21,16,09,18.50
2016,08,21,16,10,18.50
2016,08,21,16,11,18.50
2016,08,21,16,12,18.50
2016,08,21,16,13,18.60
2016,08,21,16,14,18.60
2016,08,21,16,15,18.70
2016,08,21,16,16,18.80
2016,08,21,16,17,18.80
2016,08,21,16,18,18.80
2016,08,21,16,19,18.80
2016,08,21,16,20,18.70
2016,08,21,16,21,18.50
2016,08,21,16,22,18.40
2016,08,21,16,23,18.40
2016,08,21,16,24,18.30
2016,08,21,16,25,18.30
2016,08,21,16,26,18.20
2016,08,21,16,27,18.10
2016,08,21,16,28,18.10
2016,08,21,16,29,18.10
2016,08,21,16,30,18.10
2016,08,21,16,31,18.10
2016,08,21,16,32,18.20
2016,08,21,16,33,18.20
2016,08,21,16,34,18.20
2016,08,21,16,35,18.20
2016,08,21,16,36,18.10
2016,08,21,16,37,18.00
2016,08,21,16,38,17.90
2016,08,21,16,39,17.90
2016,08,21,16,40,17.90
2016,08,21,16,41,17.90
2016,08,21,16,42,17.90
2016,08,21,16,43,17.90
2016,08,21,16,44,17.90
2016,08,21,16,45,17.80
2016,08,21,16,46,17.80
2016,08,21,16,47,17.70
2016,08,21,16,48,17.70
2016,08,21,16,49,17.70
2016,08,21,16,50,17.60
2016,08,21,16,51,17.60
2016,08,21,16,52,17.50
2016,08,21,16,53,17.50
2016,08,21,16,54,17.50
2016,08,21,16,55,17.50
2016,08,21,16,56,17.50
2016,08,21,16,57,17.50
2016,08,21,16,58,17.50
2016,08,21,16,59,17.40
2016,08,21,17,00,17.50
2016,08,21,17,01,17.50
2016,08,21,17,02,17.60
2016,08,21,17,03,17.60
2016,08,21,17,04,17.60
2016,08,21,17,05,17.60
2016,08,21,17,06,17.60
2016,08,21,17,07,17.60
2016,08,21,17,08,17.70
2016,08,21,17,09,17.70
2016,08,21,17,10,17.80
2016,08,21,17,11,17.80
2016,08,21,17,12,17.90
2016,08,21,17,13,17.90
2016,08,21,17,14,17.90
2016,08,21,17,15,17.90
2016,08,21,17,16,17.90
2016,08,21,17,17,17.90
2016,08,21,17,18,17.90
2016,08,21,17,19,17.90